Regional Weather Roundup
Issued by NWS Mt. Holly, NJ

Home | Current Version | Previous Version | Text Only | Print | Product List | Glossary On
Versions: 1 2 3 4 5 6 7 8 9 10 11 12 13 14 15 16 17 18 19 20 21 22 23 24 25 26 27 28 29 30 31 32 33 34 35 36 37 38 39 40 41 42 43 44 45 46 47 48 49 50
000
ASUS41 KPHI 220012
RWRPHI

REGIONAL WEATHER ROUNDUP
NATIONAL WEATHER SERVICE MOUNT HOLLY NJ
800 PM EDT MON AUG 21 2017

NOTE:  "FAIR" INDICATES FEW OR NO CLOUDS BELOW 12,000 FEET WITH NO
SIGNIFICANT WEATHER AND/OR OBSTRUCTIONS TO VISIBILITY.

 * = STATION DOES NOT REPORT PRECIPITATION (E.G. RAIN, SNOW, ETC.)
        OR FOG.

NJZ015>026-220100-
SOUTHERN NEW JERSEY

CITY           SKY/WX    TMP DP  RH WIND       PRES   REMARKS
POMONA         CLOUDY    78  72  81 S6        30.13S
6HR MIN TEMP:  77; 6HR MAX TEMP:  83;

WILDWOOD*      CLOUDY    77  72  84 S8        30.14R
MILLVILLE      CLOUDY    79  75  87 CALM      30.13R
WRIGHTSTOWN    PTCLDY    76  71  84 S3        30.10R
MOUNT HOLLY    MOCLDY    77  72  84 CALM      30.12R
TRENTON        PTCLDY    79  69  71 S7        30.11S
6HR MIN TEMP:  79; 6HR MAX TEMP:  86;


$$
NJZ001>014-220100-
NORTHERN NEW JERSEY

CITY           SKY/WX    TMP DP  RH WIND       PRES   REMARKS
SUSSEX         CLOUDY    76  72  87 CALM      30.11R
ANDOVER*         N/A     75  71  87 SW3       30.12S
MORRISTOWN     PTCLDY    82  68  61 SW7       30.10S
NEWARK         MOCLDY    81  69  67 S13       30.10R
TETERBORO      CLEAR     83  68  60 SW9       30.08R
CALDWELL       PTCLDY    81  70  69 SW5       30.10R
SOMERVILLE     CLOUDY    79  71  76 S3        30.09S
ALLAIRE*       CLEAR     78  70  76 S5        30.13S
TOMS RIVER*    CLEAR     76  70  82 S5        30.14R

$$
PAZ043-044-047-054-055-060>062-066>071-220100-
EASTERN PENNSYLVANIA

CITY           SKY/WX    TMP DP  RH WIND       PRES   REMARKS
PHILADELPHIA   CLOUDY    81  71  71 S7        30.12S
6HR MIN TEMP:  81; 6HR MAX TEMP:  93;

NORTH PHILA    CLOUDY    82  70  66 S6        30.13S
BLUE BELL*     CLOUDY    77  70  78 CALM      30.13F
DOYLESTOWN     CLOUDY    79  69  71 VRB3      30.12S
QUAKERTOWN*    CLOUDY    79  72  78 S3        30.13F
PERKASIE*      MOCLDY    77  72  83 CALM      30.14S
POTTSTOWN      MOCLDY    79  72  79 S5        30.13F
LANCASTER      TSTM      73  71  93 SE7       30.13R FOG
COATESVILLE    CLOUDY    77  72  83 CALM      30.15S
READING        CLOUDY    76  71  85 SE3       30.11S
6HR MIN TEMP:  76; 6HR MAX TEMP:  86; 6HR PCP:  0.05;

ALLENTOWN      LGT RAIN  79  71  76 SW7       30.11S
6HR MIN TEMP:  79; 6HR MAX TEMP:  86; 6HR PCP: TRACE;

MOUNT POCONO   MOCLDY    70  66  87 CALM      30.18R
6HR MIN TEMP:  71; 6HR MAX TEMP:  78;

HAZLETON         N/A     70  64  83 CALM      30.19S HAZE
LEHIGHTON      FAIR      75  64  69 CALM      30.12R
WILKES BARRE   PTCLDY    74  69  85 S3        30.12F

$$
DEZALL-MDZ008-012-015-019-020-220100-
DELAWARE AND EASTERN MARYLAND

CITY           SKY/WX    TMP DP  RH WIND       PRES   REMARKS
WILMINGTON     MOCLDY    82  76  81 S5        30.12S
6HR MIN TEMP:  81; 6HR MAX TEMP:  84;

DOVER          MOCLDY    79  72  78 S7        30.12R
GEORGETOWN     CLOUDY    79  72  79 S9        30.14S
6HR MIN TEMP:  79; 6HR MAX TEMP:  87;

ABERDEEN       PTCLDY    75  69  83 SW3       30.12S
PATUXENT       CLOUDY    78  75  90 S6        30.12S
OCEAN CITY     CLOUDY    78  75  90 S6        30.15F
WALLOPS ISLAND CLOUDY    78  75  90 S9        30.15S
CAMBRIDGE      PTCLDY    81  73  78 VRB6      30.13R
SALISBURY      CLOUDY    78  74  87 S6        30.14S

$$
PAZ001-021-NYZ056-072-MDZ011-DCZ001-220100-
OTHER NEARBY LOCATIONS

CITY           SKY/WX    TMP DP  RH WIND       PRES   REMARKS
HARRISBURG     CLOUDY    80  75  84 SE9       30.09R
STATE COLLEGE  CLEAR     75  70  83 SW6       30.12R
WILLIAMSPORT   CLOUDY    74  72  93 CALM      30.08R
BINGHAMTON     CLEAR     66  65  96 S3        30.12F
NEW YORK CITY  CLEAR     80  67  64 VRB7      30.13R
BALTIMORE      MOCLDY    75  73  93 S5        30.11F
WASHINGTON DC  CLOUDY    79  72  79 S8        30.13R

$$



USA.gov is the U.S. government's official web portal to all federal, state and local government web resources and services.